Powrót do katalogu

SL-12 R/B(2)

AktywnyGEO
NORAD 26480·ROCKET BODY·🇷🇺 Russia

Wystrzelony Aug 28, 2000 z Baikonur Cosmodrome

Loading…

TLE

ŚwieżeSource: Space-Track

Epoka: Sep 13, 2026, 17:46 UTC

1 26480U 00049D   26256.74034123 -.00000089  00000-0  00000-0 0  9996
2 26480  14.6705   9.5336 0013780  27.5369 326.0805  0.98192620 47251

Śledź SL-12 R/B(2) w czasie rzeczywistym z AllMySat

Download on the App Store